Flag for U.S.A. Weather past 2 weeks in Salina, Kansas, U.S.A.

Now
79 °F

Passing clouds.


Feels Like: 80 °F
Forecast: 67 / 99 °F
Wind: 5 mph from Southwest

Location: Salina Municipal Airport

Current Time: Jun 30, 2015 at 10:07:09 AM

Latest Report: Jun 30, 2015 at 8:53 AM


Visibility: 9 mi

Pressure: 29.94 "Hg

Humidity: 56%

Dew point: 62 °F

Location of SalinaLocation

Historic Weather in Salina — Graph

°F

Salina temperature yesterday

Maximum temperature yesterday: 93 °F (at 4:53 PM)
Minimum temperature yesterday: 62 °F (at 6:53 AM)
Average temperature yesterday: 78 °F

Past Weeks' High & Low Weather Summary

 TemperatureHumidityPressure
High104 °F (Jun 22, 3:53 PM)94% (Jun 17, 5:53 AM)30.15 "Hg (Jun 17, 5:53 AM)
Low62 °F (Jun 29, 6:53 AM)23% (Jun 28, 4:53 PM)29.69 "Hg (Jun 20, 6:53 PM)
Average81 °F59%29.92 "Hg
* Reported Jun 15 7:01 AM — Jun 30 7:53 AM, Salina, Weather by CustomWeather, © 2015

Note: Actual official high and low records may vary slightly from our data, if they occured in-between our weather recording intervals... More about our weather records

Advertising

Salina weather history for previous 24 hours

 ConditionsComfort  
Time TempWeatherWind HumidityBarometerVisibility
7:53 AM
Tue, Jun 30
72 °FSunny.3 mph68%29.93 "Hg8 mi
6:53 AM66 °FClear.No wind78%29.93 "Hg7 mi
5:53 AM66 °FClear.3 mph75%29.93 "Hg8 mi
4:53 AM65 °FClear.3 mph81%29.92 "Hg7 mi
3:53 AM66 °FClear.3 mph78%29.93 "Hg8 mi
2:53 AM66 °FClear.3 mph78%29.94 "Hg8 mi
1:53 AM70 °FClear.3 mph68%29.95 "Hg8 mi
12:53 AM70 °FClear.9 mph71%29.94 "Hg6 mi
11:53 PM
Mon, Jun 29
74 °FClear.7 mph60%29.93 "Hg7 mi
10:53 PM78 °FClear.No wind50%29.93 "Hg7 mi
9:53 PM77 °FSunny.3 mph50%29.91 "Hg7 mi
8:53 PM85 °FSunny.5 mph39%29.90 "Hg7 mi
7:53 PM88 °FSunny.9 mph34%29.89 "Hg8 mi
6:53 PM91 °FSunny.12 mph31%29.88 "Hg9 mi
5:53 PM93 °FSunny.7 mph27%29.90 "Hg9 mi
4:53 PM93 °FSunny.5 mph28%29.91 "Hg9 mi
3:53 PM92 °FSunny.3 mph29%29.93 "Hg10 mi
2:53 PM91 °FSunny.7 mph30%29.94 "Hg10 mi
1:53 PM88 °FSunny.7 mph33%29.96 "Hg10 mi
12:53 PM88 °FSunny.8 mph33%29.97 "Hg10 mi
11:53 AM85 °FSunny.5 mph39%29.98 "Hg10 mi
10:53 AM82 °FSunny.6 mph46%29.98 "Hg10 mi
Weather by CustomWeather, © 2015

See weather overviewHow to use our weather pages